Date String (YYYY-MM-DD hh:mm:ss) UTC,Instrument flags,absolute air pressure of the measurement (hPa),sample flow rate (lpm),inlet stack bypass flow (lpm),air temperature of the measurement (°C),ambient temperature measured by the external sensor (°C),aerosol sample conditioner tube jacket temperature (°C),OPC LED temperature (°C),internal box temperature (°C),relative humidity of the measurement (%),span deviation,mass concentration of particles derived from Lorenz-Mie calculation of OPC scattering (μg/m³),mass concentration of particles derived from Lorenz-Mie calculation of OPC scattering (μg/m³),mass concentration of particles derived from Lorenz-Mie calculation of OPC scattering (μg/m³)
DateTimeUTC,F1_M11,P_M11,Q1_M11,Q2_M11,T1_M11,T2_M11,T3_M11,T4_M11,T5_M11,U1_M11,ZSPAN_M11,X0_M11,X2_M11,X1_M11
2023-09-03 13:00:00,SystemResetWarning,0833.2,5.00,000.00,028.2,026.7,000.0,036.6,029.8,27.9,0000.0,0005.24,0002.52,0002.03
2023-09-03 13:01:00,SystemResetWarning,0833.2,5.00,000.00,028.2,026.8,000.0,036.6,029.8,27.9,0000.0,0005.26,0002.52,0002.03
2023-09-03 13:02:00,SystemResetWarning,0833.2,4.99,000.00,028.2,027.0,000.0,036.6,029.9,28.0,0000.0,0005.35,0002.50,0002.02
2023-09-03 13:03:00,SystemResetWarning,0833.2,5.00,000.00,028.3,027.1,000.0,036.6,029.9,27.9,0000.0,0005.37,0002.50,0002.01
2023-09-03 13:04:00,SystemResetWarning,0833.3,5.00,000.00,028.3,027.2,000.0,036.7,030.0,27.8,0000.0,0005.18,0002.47,0002.00
2023-09-03 13:05:00,SystemResetWarning,0833.3,5.01,000.00,028.4,027.3,000.0,036.7,030.0,27.8,0000.0,0004.32,0002.45,0001.98
2023-09-03 13:06:00,SystemResetWarning,0833.3,5.00,000.00,028.4,027.4,000.0,036.7,030.0,27.9,0000.0,0004.85,0002.40,0001.96
2023-09-03 13:07:00,SystemResetWarning,0833.3,5.00,000.00,028.4,027.4,000.0,036.7,030.1,28.1,0000.0,0004.83,0002.38,0001.95
2023-09-03 13:08:00,SystemResetWarning,0833.3,4.98,000.00,028.4,026.4,000.0,036.7,029.8,27.7,0000.0,0004.93,0002.43,0001.95
2023-09-03 13:09:00,SystemResetWarning,0833.3,5.00,000.00,028.3,024.7,000.0,036.6,029.4,27.7,0000.0,0005.55,0002.40,0001.94
2023-09-03 13:10:00,SystemResetWarning,0833.3,5.01,000.00,028.2,024.1,000.0,036.5,029.2,28.2,0000.0,0005.62,0002.40,0001.93
2023-09-03 13:11:00,SystemResetWarning,0833.3,5.01,000.00,028.0,024.3,000.0,036.5,029.2,28.7,0000.0,0005.46,0002.34,0001.93
2023-09-03 13:12:00,SystemResetWarning,0833.4,5.00,000.00,028.0,024.7,000.0,036.5,029.2,29.1,0000.0,0005.23,0002.28,0001.92
2023-09-03 13:13:00,SystemResetWarning,0833.4,5.00,000.00,028.0,025.1,000.0,036.5,029.3,29.5,0000.0,0005.15,0002.28,0001.92
2023-09-03 13:14:00,SystemResetWarning,0833.4,5.01,000.00,028.0,025.5,000.0,036.5,029.4,29.2,0000.0,0005.10,0002.27,0001.91
2023-09-03 13:15:00,SystemResetWarning,0833.4,5.00,000.00,028.0,025.8,000.0,036.5,029.5,28.9,0000.0,0005.52,0002.28,0001.91
2023-09-03 13:16:00,SystemResetWarning,0833.4,5.00,000.00,028.0,026.1,000.0,036.5,029.6,28.8,0000.0,0005.99,0002.29,0001.92
2023-09-03 13:17:00,SystemResetWarning,0833.4,4.99,000.00,028.0,026.3,000.0,036.5,029.6,28.8,0000.0,0004.92,0002.27,0001.92
2023-09-03 13:18:00,SystemResetWarning,0833.4,5.00,000.00,028.1,026.5,000.0,036.5,029.7,28.6,0000.0,0004.99,0002.30,0001.92
2023-09-03 13:19:00,SystemResetWarning,0833.4,5.00,000.00,028.1,026.7,000.0,036.5,029.7,28.6,0000.0,0005.08,0002.28,0001.91
2023-09-03 13:20:00,SystemResetWarning,0833.4,5.01,000.00,028.1,026.9,000.0,036.5,029.8,28.5,0000.0,0004.80,0002.29,0001.91
2023-09-03 13:21:00,SystemResetWarning,0833.4,4.99,000.00,028.2,027.0,000.0,036.5,029.8,28.5,0000.0,0005.61,0002.27,0001.91
2023-09-03 13:22:00,SystemResetWarning,0833.4,5.00,000.00,028.2,027.1,000.0,036.6,029.9,28.3,0000.0,0005.62,0002.26,0001.90
2023-09-03 13:23:00,SystemResetWarning,0833.4,5.00,000.00,028.3,027.2,000.0,036.6,029.9,28.3,0000.0,0005.73,0002.28,0001.90
2023-09-03 13:24:00,SystemResetWarning,0833.4,5.00,000.00,028.3,027.3,000.0,036.6,030.0,28.2,0000.0,0005.71,0002.28,0001.90
2023-09-03 13:25:00,SystemResetWarning,0833.4,4.99,000.00,028.3,027.4,000.0,036.6,030.0,28.2,0000.0,0005.65,0002.26,0001.90
2023-09-03 13:26:00,SystemResetWarning,0833.4,5.00,000.00,028.4,027.5,000.0,036.7,030.1,28.3,0000.0,0005.55,0002.26,0001.90
2023-09-03 13:27:00,SystemResetWarning,0833.4,5.01,000.00,028.4,027.5,000.0,036.7,030.1,29.3,0000.0,0004.62,0002.27,0001.90
2023-09-03 13:28:00,SystemResetWarning,0833.4,4.99,000.00,028.5,027.0,000.0,036.7,030.0,30.1,0000.0,0004.65,0002.27,0001.89
2023-09-03 13:29:00,SystemResetWarning,0833.4,4.99,000.00,028.3,025.3,000.0,036.6,029.5,30.1,0000.0,0004.71,0002.30,0001.89
2023-09-03 13:30:00,SystemResetWarning,0833.4,5.01,000.00,028.2,024.4,000.0,036.5,029.3,30.0,0000.0,0004.60,0002.29,0001.89
2023-09-03 13:31:00,SystemResetWarning,0833.4,5.01,000.00,028.1,024.5,000.0,036.5,029.2,29.4,0000.0,0004.45,0002.25,0001.90
2023-09-03 13:32:00,SystemResetWarning,0833.4,4.99,000.00,028.0,024.8,000.0,036.5,029.2,29.9,0000.0,0003.51,0002.26,0001.91
2023-09-03 13:33:00,SystemResetWarning,0833.4,5.00,000.00,028.0,025.2,000.0,036.5,029.3,30.5,0000.0,0003.42,0002.33,0001.93
2023-09-03 13:34:00,SystemResetWarning,0833.4,5.01,000.00,028.0,025.6,000.0,036.5,029.4,30.7,0000.0,0003.51,0002.38,0001.94
2023-09-03 13:35:00,SystemResetWarning,0833.4,5.00,000.00,028.0,025.9,000.0,036.5,029.5,30.6,0000.0,0003.53,0002.39,0001.95
2023-09-03 13:36:00,SystemResetWarning,0833.4,5.00,000.00,028.1,026.2,000.0,036.5,029.6,30.5,0000.0,0003.59,0002.41,0001.95
2023-09-03 13:37:00,SystemResetWarning,0833.4,5.00,000.00,028.1,026.5,000.0,036.5,029.7,30.0,0000.0,0003.72,0002.46,0001.95
2023-09-03 13:38:00,SystemResetWarning,0833.4,5.00,000.00,028.1,026.7,000.0,036.5,029.8,30.3,0000.0,0003.74,0002.46,0001.96
2023-09-03 13:39:00,SystemResetWarning,0833.4,5.00,000.00,028.2,026.9,000.0,036.5,029.8,30.1,0000.0,0003.80,0002.48,0001.96
2023-09-03 13:40:00,SystemResetWarning,0833.4,5.00,000.00,028.2,027.0,000.0,036.6,029.9,30.1,0000.0,0003.79,0002.47,0001.97
2023-09-03 13:41:00,SystemResetWarning,0833.4,5.00,000.00,028.2,027.1,000.0,036.6,029.9,29.8,0000.0,0003.82,0002.50,0001.98
2023-09-03 13:42:00,SystemResetWarning,0833.4,5.00,000.00,028.3,027.3,000.0,036.6,030.0,30.5,0000.0,0003.81,0002.50,0001.97
2023-09-03 13:43:00,SystemResetWarning,0833.4,5.01,000.00,028.3,027.4,000.0,036.6,030.0,30.7,0000.0,0004.38,0002.49,0001.97
2023-09-03 13:44:00,SystemResetWarning,0833.4,5.00,000.00,028.4,027.4,000.0,036.7,030.1,31.1,0000.0,0004.74,0002.46,0001.97
2023-09-03 13:45:00,SystemResetWarning,0833.4,4.99,000.00,028.4,027.1,000.0,036.7,030.0,29.9,0000.0,0005.32,0002.42,0001.95
2023-09-03 13:46:00,SystemResetWarning,0833.4,4.99,000.00,028.3,025.6,000.0,036.6,029.5,29.7,0000.0,0005.79,0002.44,0001.94
2023-09-03 13:47:00,SystemResetWarning,0833.4,5.02,000.00,028.2,024.7,000.0,036.5,029.3,29.3,0000.0,0005.82,0002.46,0001.95
2023-09-03 13:48:00,SystemResetWarning,0833.4,4.99,000.00,028.1,024.8,000.0,036.5,029.3,29.3,0000.0,0005.67,0002.42,0001.95
2023-09-03 13:49:00,SystemResetWarning,0833.4,4.99,000.00,028.0,025.0,000.0,036.5,029.3,29.3,0000.0,0005.78,0002.47,0001.96
2023-09-03 13:50:00,SystemResetWarning,0833.4,5.01,000.00,028.0,025.4,000.0,036.5,029.4,29.2,0000.0,0005.80,0002.48,0001.96
2023-09-03 13:51:00,SystemResetWarning,0833.4,5.01,000.00,028.0,025.8,000.0,036.5,029.5,29.2,0000.0,0005.72,0002.45,0001.96
2023-09-03 13:52:00,SystemResetWarning,0833.4,5.00,000.00,028.1,026.1,000.0,036.5,029.6,29.3,0000.0,0005.64,0002.42,0001.97
2023-09-03 13:53:00,SystemResetWarning,0833.4,5.00,000.00,028.1,026.3,000.0,036.5,029.7,29.6,0000.0,0005.61,0002.42,0002.00
2023-09-03 13:54:00,SystemResetWarning,0833.4,5.00,000.00,028.1,026.6,000.0,036.5,029.7,29.6,0000.0,0005.24,0002.46,0002.00
2023-09-03 13:55:00,SystemResetWarning,0833.4,5.00,000.00,028.2,026.8,000.0,036.6,029.8,29.7,0000.0,0004.64,0002.51,0002.01
2023-09-03 13:56:00,SystemResetWarning,0833.4,5.00,000.00,028.2,026.9,000.0,036.6,029.9,29.3,0000.0,0004.08,0002.51,0002.03
2023-09-03 13:57:00,SystemResetWarning,0833.4,5.00,000.00,028.2,027.1,000.0,036.6,029.9,28.9,0000.0,0003.41,0002.52,0002.05
2023-09-03 13:58:00,SystemResetWarning,0833.4,5.00,000.00,028.3,027.2,000.0,036.6,030.0,28.5,0000.0,0003.40,0002.53,0002.06
2023-09-03 13:59:00,SystemResetWarning,0833.4,5.00,000.00,028.3,027.3,000.0,036.7,030.0,28.7,0000.0,0003.52,0002.57,0002.07
